Terminal Aerodrome Forecast
Issued by NWS Glasgow, MT

Home | Current Version | Previous Version | Text Only | Print | Product List | Glossary On
Versions: 1 2 3 4 5 6 7 8 9 10 11 12 13
000
FTUS45 KGGW 221700
TAFGGW
TAF
KGGW 221737Z 2218/2318 13012KT P6SM SKC
     FM230900 VRB05KT P6SM FEW240=

USA.gov is the U.S. government's official web portal to all federal, state and local government web resources and services.